Time,TemperatureF,DewpointF,PressureIn,WindDirection,WindDirectionDegrees,WindSpeedMPH,WindSpeedGustMPH,Humidity,HourlyPrecipIn,Conditions,Clouds,dailyrainin,SolarRadiationWatts/m^2,SoftwareType,DateUTC
2013-09-26 00:22:00,33.0,33.0,-100.00,WSW,256,11.0,25.0,99,0.01,,,0.51,0.000000,,2013-09-26 06:22:00,
2013-09-26 00:33:00,33.0,33.0,-100.00,WSW,256,11.0,25.0,99,0.01,,,0.51,0.000000,,2013-09-26 06:33:00,
2013-09-26 00:42:00,33.0,33.0,-100.00,WSW,256,11.0,25.0,99,0.01,,,0.51,0.000000,,2013-09-26 06:42:00,
2013-09-26 00:52:00,33.0,33.0,-100.00,SSW,200,12.0,24.0,99,0.00,,,0.51,0.000000,,2013-09-26 06:52:00,
2013-09-26 01:22:00,33.0,33.0,-100.00,SSW,200,12.0,24.0,99,0.00,,,0.51,0.000000,,2013-09-26 07:22:00,
2013-09-26 01:32:00,33.0,33.0,-100.00,SSW,200,12.0,24.0,99,0.00,,,0.51,0.000000,,2013-09-26 07:32:00,
2013-09-26 01:42:00,33.0,33.0,-100.00,SSW,200,12.0,24.0,99,0.00,,,0.51,0.000000,,2013-09-26 07:42:00,
2013-09-26 01:52:00,32.0,32.0,-100.00,SSE,165,15.0,22.0,99,0.01,,,0.52,0.000000,,2013-09-26 07:52:00,
2013-09-26 02:22:00,32.0,32.0,-100.00,SSE,165,15.0,22.0,99,0.01,,,0.52,0.000000,,2013-09-26 08:22:00,
2013-09-26 02:32:00,32.0,32.0,-100.00,SSE,165,15.0,22.0,99,0.01,,,0.52,0.000000,,2013-09-26 08:32:00,
2013-09-26 02:42:00,32.0,32.0,-100.00,SSE,165,15.0,22.0,99,0.01,,,0.52,0.000000,,2013-09-26 08:42:00,
2013-09-26 03:52:00,31.0,31.0,-100.00,SSW,207,13.0,20.0,99,-99.99,,,0.52,0.000000,,2013-09-26 09:52:00,
2013-09-26 04:23:00,31.0,31.0,-100.00,SSW,207,13.0,20.0,99,-99.99,,,0.52,0.000000,,2013-09-26 10:23:00,
2013-09-26 04:32:00,31.0,31.0,-100.00,SSW,207,13.0,20.0,99,-99.99,,,0.52,0.000000,,2013-09-26 10:32:00,
2013-09-26 04:42:00,31.0,31.0,-100.00,SSW,207,13.0,20.0,99,-99.99,,,0.52,0.000000,,2013-09-26 10:42:00,
2013-09-26 04:52:00,30.0,30.0,-100.00,WNW,292,0.0,14.0,99,0.00,,,0.52,0.000000,,2013-09-26 10:52:00,
2013-09-26 05:22:00,30.0,30.0,-100.00,WNW,292,0.0,14.0,99,0.00,,,0.52,0.000000,,2013-09-26 11:22:00,
2013-09-26 05:33:00,30.0,30.0,-100.00,WNW,292,0.0,14.0,99,0.00,,,0.52,0.000000,,2013-09-26 11:33:00,
2013-09-26 05:42:00,30.0,30.0,-100.00,WNW,292,0.0,14.0,99,0.00,,,0.52,0.000000,,2013-09-26 11:42:00,
2013-09-26 05:52:00,30.0,30.0,-100.00,NW,313,0.0,0.0,99,0.00,,,0.52,0.000000,,2013-09-26 11:52:00,
2013-09-26 06:21:00,30.0,30.0,-100.00,NW,313,0.0,0.0,99,0.00,,,0.52,0.000000,,2013-09-26 12:21:00,
2013-09-26 06:32:00,30.0,30.0,-100.00,NW,313,0.0,0.0,99,0.00,,,0.52,0.000000,,2013-09-26 12:32:00,
2013-09-26 06:42:00,30.0,30.0,-100.00,NW,313,0.0,0.0,99,0.00,,,0.52,0.000000,,2013-09-26 12:42:00,
2013-09-26 06:52:00,30.0,30.0,-100.00,WNW,282,0.0,0.0,99,0.00,,,0.51,0.000000,,2013-09-26 12:52:00,
2013-09-26 07:21:00,30.0,30.0,-100.00,WNW,282,0.0,0.0,99,0.00,,,0.51,0.000000,,2013-09-26 13:21:00,
2013-09-26 07:32:00,30.0,30.0,-100.00,WNW,282,0.0,0.0,99,0.00,,,0.51,0.000000,,2013-09-26 13:32:00,
2013-09-26 07:42:00,30.0,30.0,-100.00,WNW,282,0.0,0.0,99,0.00,,,0.51,0.000000,,2013-09-26 13:42:00,
2013-09-26 07:52:00,30.0,30.0,-100.00,WNW,291,0.0,0.0,99,0.00,,,0.51,4.000000,,2013-09-26 13:52:00,
2013-09-26 08:22:00,30.0,30.0,-100.00,WNW,291,0.0,0.0,99,0.00,,,0.51,4.000000,,2013-09-26 14:22:00,
2013-09-26 08:32:00,30.0,30.0,-100.00,WNW,291,0.0,0.0,99,0.00,,,0.51,4.000000,,2013-09-26 14:32:00,
2013-09-26 08:42:00,30.0,30.0,-100.00,WNW,291,0.0,0.0,99,0.00,,,0.51,4.000000,,2013-09-26 14:42:00,
2013-09-26 08:52:00,30.0,30.0,-100.00,NW,319,0.0,0.0,99,0.00,,,0.51,28.000000,,2013-09-26 14:52:00,
2013-09-26 09:22:00,30.0,30.0,-100.00,NW,319,0.0,0.0,99,0.00,,,0.51,28.000000,,2013-09-26 15:22:00,
2013-09-26 09:33:00,30.0,30.0,-100.00,NW,319,0.0,0.0,99,0.00,,,0.51,28.000000,,2013-09-26 15:33:00,
2013-09-26 09:44:00,30.0,30.0,-100.00,NW,319,0.0,0.0,99,0.00,,,0.51,28.000000,,2013-09-26 15:44:00,
2013-09-26 09:52:00,30.0,30.0,-100.00,NW,313,0.0,0.0,99,0.00,,,0.51,42.000000,,2013-09-26 15:52:00,
2013-09-26 10:24:00,30.0,30.0,-100.00,NW,313,0.0,0.0,99,0.00,,,0.51,42.000000,,2013-09-26 16:24:00,
2013-09-26 10:33:00,30.0,30.0,-100.00,NW,313,0.0,0.0,99,0.00,,,0.51,42.000000,,2013-09-26 16:33:00,
2013-09-26 10:43:00,30.0,30.0,-100.00,NW,313,0.0,0.0,99,0.00,,,0.51,42.000000,,2013-09-26 16:43:00,
2013-09-26 10:52:00,30.0,30.0,-100.00,SSW,213,0.0,0.0,99,0.00,,,0.51,70.000000,,2013-09-26 16:52:00,
2013-09-26 11:23:00,30.0,30.0,-100.00,SSW,213,0.0,0.0,99,0.00,,,0.51,70.000000,,2013-09-26 17:23:00,
2013-09-26 11:34:00,30.0,30.0,-100.00,SSW,213,0.0,0.0,99,0.00,,,0.51,70.000000,,2013-09-26 17:34:00,
2013-09-26 11:43:00,30.0,30.0,-100.00,SSW,213,0.0,0.0,99,0.00,,,0.51,70.000000,,2013-09-26 17:43:00,
2013-09-26 11:52:00,30.0,30.0,-100.00,WNW,289,0.0,0.0,99,0.00,,,0.51,94.000000,,2013-09-26 17:52:00,
2013-09-26 12:22:00,30.0,30.0,-100.00,WNW,289,0.0,0.0,99,0.00,,,0.51,94.000000,,2013-09-26 18:22:00,
2013-09-26 12:32:00,30.0,30.0,-100.00,WNW,289,0.0,0.0,99,0.00,,,0.51,94.000000,,2013-09-26 18:32:00,
2013-09-26 12:42:00,30.0,30.0,-100.00,WNW,289,0.0,0.0,99,0.00,,,0.51,94.000000,,2013-09-26 18:42:00,
2013-09-26 12:52:00,30.0,30.0,-100.00,NW,313,0.0,0.0,99,0.00,,,0.51,143.000000,,2013-09-26 18:52:00,
2013-09-26 13:22:00,30.0,30.0,-100.00,NW,313,0.0,0.0,99,0.00,,,0.51,143.000000,,2013-09-26 19:22:00,
2013-09-26 13:32:00,30.0,30.0,-100.00,NW,313,0.0,0.0,99,0.00,,,0.51,143.000000,,2013-09-26 19:32:00,
2013-09-26 13:43:00,30.0,30.0,-100.00,NW,313,0.0,0.0,99,0.00,,,0.51,143.000000,,2013-09-26 19:43:00,
2013-09-26 13:52:00,31.0,31.0,-100.00,NW,317,0.0,0.0,99,0.00,,,0.51,206.000000,,2013-09-26 19:52:00,
2013-09-26 14:22:00,31.0,31.0,-100.00,NW,317,0.0,0.0,99,0.00,,,0.51,206.000000,,2013-09-26 20:22:00,
2013-09-26 14:32:00,31.0,31.0,-100.00,NW,317,0.0,0.0,99,0.00,,,0.51,206.000000,,2013-09-26 20:32:00,
2013-09-26 14:42:00,31.0,31.0,-100.00,NW,317,0.0,0.0,99,0.00,,,0.51,206.000000,,2013-09-26 20:42:00,
2013-09-26 14:52:00,31.0,31.0,-100.00,NW,319,0.0,0.0,99,0.00,,,0.48,198.000000,,2013-09-26 20:52:00,
2013-09-26 15:23:00,31.0,31.0,-100.00,NW,319,0.0,0.0,99,0.00,,,0.48,198.000000,,2013-09-26 21:23:00,
2013-09-26 15:34:00,31.0,31.0,-100.00,NW,319,0.0,0.0,99,0.00,,,0.48,198.000000,,2013-09-26 21:34:00,
2013-09-26 15:44:00,31.0,31.0,-100.00,NW,319,0.0,0.0,99,0.00,,,0.48,198.000000,,2013-09-26 21:44:00,
2013-09-26 15:52:00,32.0,32.0,-100.00,NW,323,0.0,0.0,99,0.00,,,0.41,253.000000,,2013-09-26 21:52:00,
2013-09-26 16:24:00,32.0,32.0,-100.00,NW,323,0.0,0.0,99,0.00,,,0.41,253.000000,,2013-09-26 22:24:00,
2013-09-26 16:32:00,32.0,32.0,-100.00,NW,323,0.0,0.0,99,0.00,,,0.41,253.000000,,2013-09-26 22:32:00,
2013-09-26 16:42:00,32.0,32.0,-100.00,NW,323,0.0,0.0,99,0.00,,,0.41,253.000000,,2013-09-26 22:42:00,
2013-09-26 16:52:00,32.0,32.0,-100.00,NW,319,0.0,0.0,99,0.00,,,0.36,201.000000,,2013-09-26 22:52:00,
2013-09-26 17:23:00,32.0,32.0,-100.00,NW,319,0.0,0.0,99,0.00,,,0.36,201.000000,,2013-09-26 23:23:00,
2013-09-26 17:34:00,32.0,32.0,-100.00,NW,319,0.0,0.0,99,0.00,,,0.36,201.000000,,2013-09-26 23:34:00,
2013-09-26 17:42:00,32.0,32.0,-100.00,NW,319,0.0,0.0,99,0.00,,,0.36,201.000000,,2013-09-26 23:42:00,
2013-09-26 17:52:00,32.0,32.0,-100.00,NW,325,0.0,0.0,99,0.00,,,0.31,83.000000,,2013-09-26 23:52:00,
2013-09-26 18:22:00,32.0,32.0,-100.00,NW,325,0.0,0.0,99,0.00,,,0.31,83.000000,,2013-09-27 00:22:00,
2013-09-26 18:32:00,32.0,32.0,-100.00,NW,325,0.0,0.0,99,0.00,,,0.31,83.000000,,2013-09-27 00:32:00,
2013-09-26 18:43:00,32.0,32.0,-100.00,NW,325,0.0,0.0,99,0.00,,,0.31,83.000000,,2013-09-27 00:43:00,
2013-09-26 18:52:00,32.0,32.0,-100.00,WNW,301,0.0,0.0,99,0.00,,,0.27,35.000000,,2013-09-27 00:52:00,
2013-09-26 19:23:00,32.0,32.0,-100.00,WNW,301,0.0,0.0,99,0.00,,,0.27,35.000000,,2013-09-27 01:23:00,
2013-09-26 19:32:00,32.0,32.0,-100.00,WNW,301,0.0,0.0,99,0.00,,,0.27,35.000000,,2013-09-27 01:32:00,
2013-09-26 19:42:00,32.0,32.0,-100.00,WNW,301,0.0,0.0,99,0.00,,,0.27,35.000000,,2013-09-27 01:42:00,
2013-09-26 19:52:00,31.0,31.0,-100.00,WNW,299,0.0,0.0,99,0.00,,,0.14,0.000000,,2013-09-27 01:52:00,
2013-09-26 20:22:00,31.0,31.0,-100.00,WNW,299,0.0,0.0,99,0.00,,,0.14,0.000000,,2013-09-27 02:22:00,
2013-09-26 20:32:00,31.0,31.0,-100.00,WNW,299,0.0,0.0,99,0.00,,,0.14,0.000000,,2013-09-27 02:32:00,
2013-09-26 20:42:00,31.0,31.0,-100.00,WNW,299,0.0,0.0,99,0.00,,,0.14,0.000000,,2013-09-27 02:42:00,
2013-09-26 20:52:00,30.0,30.0,-100.00,WNW,298,0.0,0.0,99,0.00,,,0.03,0.000000,,2013-09-27 02:52:00,
2013-09-26 21:22:00,30.0,30.0,-100.00,WNW,298,0.0,0.0,99,0.00,,,0.03,0.000000,,2013-09-27 03:22:00,
2013-09-26 21:34:00,30.0,30.0,-100.00,WNW,298,0.0,0.0,99,0.00,,,0.03,0.000000,,2013-09-27 03:34:00,
2013-09-26 21:44:00,30.0,30.0,-100.00,WNW,298,0.0,0.0,99,0.00,,,0.03,0.000000,,2013-09-27 03:44:00,
2013-09-26 21:52:00,30.0,30.0,-100.00,WNW,302,0.0,0.0,99,0.00,,,0.03,0.000000,,2013-09-27 03:52:00,
2013-09-26 22:24:00,30.0,30.0,-100.00,WNW,302,0.0,0.0,99,0.00,,,0.03,0.000000,,2013-09-27 04:24:00,
2013-09-26 22:33:00,30.0,30.0,-100.00,WNW,302,0.0,0.0,99,0.00,,,0.03,0.000000,,2013-09-27 04:33:00,
2013-09-26 22:44:00,30.0,30.0,-100.00,WNW,302,0.0,0.0,99,0.00,,,0.03,0.000000,,2013-09-27 04:44:00,
2013-09-26 22:52:00,30.0,30.0,-100.00,WNW,302,0.0,0.0,99,0.00,,,0.02,0.000000,,2013-09-27 04:52:00,
2013-09-26 23:23:00,30.0,30.0,-100.00,WNW,302,0.0,0.0,99,0.00,,,0.02,0.000000,,2013-09-27 05:23:00,
2013-09-26 23:34:00,30.0,30.0,-100.00,WNW,302,0.0,0.0,99,0.00,,,0.02,0.000000,,2013-09-27 05:34:00,
2013-09-26 23:43:00,30.0,30.0,-100.00,WNW,302,0.0,0.0,99,0.00,,,0.02,0.000000,,2013-09-27 05:43:00,
2013-09-26 23:52:00,30.0,30.0,-100.00,NW,311,0.0,0.0,99,0.00,,,0.01,0.000000,,2013-09-27 05:52:00,